This is the latest recevied weather packets stored in our database for station/object WX1NWA. If no packets are shown the sender has not sent any weather packets the latest 10 day(s).
| Time | Temp. | Humidity | Pressure | Rain* | Wind** | Luminosity | Snow |
|---|---|---|---|---|---|---|---|
| 1777938316 | 20° C | 64% | 1010 hPa | 0 mm | - | 54 W/m² | - |
| 1777938013 | 20° C | 64% | 1010.2 hPa | 0 mm | - | 55 W/m² | - |
| 1777937708 | 20° C | 65% | 1010.1 hPa | 0 mm | - | 48 W/m² | - |
| 1777937405 | 20.56° C | 64% | 1010.2 hPa | 0 mm | - | 57 W/m² | - |
| 1777937102 | 20.56° C | 64% | 1009.9 hPa | 0 mm | - | 65 W/m² | - |
| 1777936800 | 20.56° C | 64% | 1010.2 hPa | 0 mm | - | 64 W/m² | - |
| 1777936497 | 20.56° C | 64% | 1010.4 hPa | 0 mm | - | 65 W/m² | - |
| 1777936193 | 20.56° C | 64% | 1010.2 hPa | 0 mm | - | 75 W/m² | - |
| 1777935890 | 20.56° C | 64% | 1010.4 hPa | 0 mm | - | 72 W/m² | - |
| 1777935589 | 20.56° C | 64% | 1010.6 hPa | 0 mm | - | 81 W/m² | - |
| 1777935285 | 20.56° C | 62% | 1010.5 hPa | 0 mm | - | 71 W/m² | - |
| 1777934982 | 20.56° C | 63% | 1010.7 hPa | 0 mm | - | 76 W/m² | - |
| 1777934679 | 20.56° C | 62% | 1010.5 hPa | 0 mm | - | 93 W/m² | - |
| 1777934376 | 20.56° C | 62% | 1010.7 hPa | 0 mm | - | 93 W/m² | - |
| 1777934071 | 20.56° C | 62% | 1010.8 hPa | 0 mm | - | 97 W/m² | - |
| 1777933767 | 21.11° C | 62% | 1010.8 hPa | 0 mm | - | 109 W/m² | - |
| 1777933465 | 21.11° C | 62% | 1010.7 hPa | 0 mm | - | 119 W/m² | - |
| 1777933163 | 21.11° C | 61% | 1010.6 hPa | 0 mm | - | 121 W/m² | - |
| 1777932859 | 21.11° C | 61% | 1010.8 hPa | 0 mm | - | 103 W/m² | - |
| 1777932556 | 21.67° C | 60% | 1010.8 hPa | 0 mm | - | 125 W/m² | - |
| 1777932253 | 21.67° C | 61% | 1011.3 hPa | 0 mm | - | 124 W/m² | - |
| 1777931950 | 21.67° C | 60% | 1011.1 hPa | 0 mm | - | 119 W/m² | - |
| 1777931647 | 21.67° C | 60% | 1011.1 hPa | 0 mm | - | 203 W/m² | - |
| 1777931343 | 21.67° C | 60% | 1010.9 hPa | 0 mm | - | 280 W/m² | - |
| 1777931040 | 21.67° C | 59% | 1011.2 hPa | 0 mm | - | 175 W/m² | - |
* Rain latest hour (hover to see other rain measurements)
** Current wind speed in m/s (hover to see current wind gust speed)